ONEWEB-0042, 45441

Orbit data source: Space-Track

ONEWEB-0042, 45441 is a payload satellite owned by One Web (UK) in LEO that was launched on Sat, 21 Mar 2020 UTC via a SOYUZ-2-1B launch vehicle from the Tyuratam Missile And Space Complex (TTMTR). Payload-class satellites include a variety of spacecraft equipped with specific instruments for various scientific and technological missions. These include communications satellites like Starlink; space stations such as the ISS; scientific satellites like the Hubble; Earth observation satellites from companies like Planet Labs, Umbra, and HawkEye 360; GPS; miniature CubeSats for education and research; and military/defense satellites.

Loading next visibility...
Identifier
45441, 2020-020T
Orbit
LEO
Country
Flag of UKUK
Related business
Manufacturer
One Web
Mission
Operational Commercial Communications
Bus & Motor
ARROW, Unknown motor
Mass
148 kg wet, ~140 kg dry
Launch date (UTC)
2020-03-21 (6 years ago)
Launch vehicle
SOYUZ-2-1B
Launch site
Tyuratam Missile And Space Complex (TTMTR)
Object type
Payload
Rocket body
Debris
Shape & HBR
Trap Box + 2 Pan, 6.7 m
Radar Cross Section
3.464 m², Large (>1 m²)

Expand to show TLE details & history
Last TLE update: 14 hours ago

TLE from 14 hours ago
0 ONEWEB-0042
1 45441U 20020T   26254.56706903 -.00000563  00000-0 -16235-2 0  9992
2 45441  87.8969   3.8871 0001905 103.8519 256.2821 13.11417191313985
Epoch: 2026-09-11T13:36Z
TLE epoch observation values (Epoch: 2026-09-11T13:36:34.764Z)
Latitude
-0°
Longitude
169.15368°
Altitude
1,220.914 km
Speed
7.244 km/s
True Right ascension
00h 15m 32s
True Declination
0° 00' 00"
Sunlit
Object was in full shadow at epoch
Visualization orbit readout
Latitude
Unknown
Longitude
Unknown
Altitude
Unknown
Speed
Unknown
Apparent Right ascension
Unknown
Apparent Declination
Unknown
Sunlit
N/A
Visualization observer readout
Local Sidereal Time
20:04:43
Azimuth
Unknown
Elevation
Unknown
Doppler factor
Unknown
Orbital elements
Apogee altitude
1,216.246 km
Perigee altitude
1,213.353 km
Semi-major axis
7,592.937 km
Eccentricity
0.00019
Inclination
87.8969°
RAAN
3.8871°
Arg. of periapsis
103.8519°
True anomaly
256.26089°
Mean anomaly
256.2821°
Eccentric anomaly
256.2715°
Mean motion
3.28041 °/min
Orbital period
109.74 mins
BSTAR
-0.0016235
Loading maneuver chart data...
Computing Atmospheric mass density...
Loading historical data...
Loading historical data...
Loading historical data...
Loading historical data...
Loading historical data...
Loading historical data...
Loading historical data...

Documentation

Showing up to 5 results
|